• în Republica Moldova
  • Lista ţărilor
  • Pe 7 zile
  • Temperatura apei
  • Hartă satelitară
  • Meteo pe hartă
  • Widget-uri
  • user-avatar
    Intrare

    Meteo pe oră la Sankt Polten

    Astăzi, 28 Aprilie, Vineri

    Timp Temperatura Precipitaţii Vânt Presiune Umiditate
    00:00 +5°C° 0,5 mm 2 m/s 731 mmHg 97%
    01:00 +4°C° 0 mm 2 m/s 730 mmHg 97%
    02:00 +4°C° 0,8 mm 2 m/s 730 mmHg 97%
    03:00 +4°C° 0,8 mm 2 m/s 730 mmHg 98%
    04:00 +5°C° 0,8 mm 1 m/s 729 mmHg 98%
    05:00 +5°C° 0,9 mm 1 m/s 729 mmHg 97%
    06:00 +4°C° 0,9 mm 2 m/s 729 mmHg 97%
    07:00 +5°C° 0 mm 1 m/s 730 mmHg 95%
    08:00 +5°C° 0,3 mm 1 m/s 729 mmHg 94%
    09:00 +6°C° 0,3 mm 1 m/s 729 mmHg 93%
    10:00 +6°C° 0,3 mm 1 m/s 729 mmHg 92%
    11:00 +7°C° 0,5 mm 1 m/s 729 mmHg 91%
    12:00 +7°C° 0,5 mm 1 m/s 730 mmHg 91%
    13:00 +8°C° 0,5 mm 1 m/s 730 mmHg 90%
    14:00 +7°C° 0,2 mm 2 m/s 730 mmHg 91%
    15:00 +7°C° 0,2 mm 2 m/s 730 mmHg 92%
    16:00 +7°C° 0,2 mm 2 m/s 730 mmHg 92%
    17:00 +5°C° 0,5 mm 3 m/s 730 mmHg 93%
    18:00 +4°C° 0,5 mm 3 m/s 731 mmHg 94%
    19:00 +4°C° 0,5 mm 4 m/s 732 mmHg 95%
    20:00 +4°C° 0,2 mm 4 m/s 732 mmHg 96%
    21:00 +4°C° 0,2 mm 4 m/s 733 mmHg 96%
    22:00 +4°C° 0,2 mm 3 m/s 734 mmHg 96%
    23:00 +3°C° 0,1 mm 3 m/s 734 mmHg 96%

    Mâine, 29 Aprilie, Sâmbătă

    Timp Temperatura Precipitaţii Vânt Presiune Umiditate
    00:00 +3°C° 0,1 mm 3 m/s 734 mmHg 96%
    01:00 +3°C° 0,1 mm 3 m/s 735 mmHg 96%
    02:00 +3°C° 0,1 mm 3 m/s 735 mmHg 97%
    03:00 +3°C° 0,1 mm 3 m/s 736 mmHg 97%
    04:00 +3°C° 0,1 mm 3 m/s 736 mmHg 97%
    05:00 +3°C° 0 mm 3 m/s 736 mmHg 95%
    06:00 +4°C° 0 mm 3 m/s 737 mmHg 93%
    07:00 +4°C° 0 mm 3 m/s 737 mmHg 91%
    08:00 +5°C° 0 mm 3 m/s 737 mmHg 87%
    09:00 +8°C° 0 mm 3 m/s 737 mmHg 82%
    10:00 +9°C° 0 mm 3 m/s 737 mmHg 77%
    11:00 +9°C° 0,1 mm 3 m/s 737 mmHg 73%
    12:00 +10°C° 0,1 mm 3 m/s 737 mmHg 69%
    13:00 +11°C° 0,1 mm 3 m/s 737 mmHg 65%
    14:00 +11°C° 0,1 mm 3 m/s 736 mmHg 65%
    15:00 +13°C° 0,1 mm 2 m/s 736 mmHg 65%
    16:00 +13°C° 0,1 mm 2 m/s 736 mmHg 65%
    17:00 +9°C° 0 mm 2 m/s 736 mmHg 73%
    18:00 +8°C° 0 mm 1 m/s 736 mmHg 81%
    19:00 +6°C° 0 mm 1 m/s 736 mmHg 90%
    20:00 +5°C° 0 mm 1 m/s 736 mmHg 91%
    21:00 +4°C° 0 mm 1 m/s 737 mmHg 91%
    22:00 +4°C° 0 mm 1 m/s 737 mmHg 92%
    23:00 +3°C° 0 mm 1 m/s 737 mmHg 92%

    Poimâine, 30 Aprilie, Duminică

    Timp Temperatura Precipitaţii Vânt Presiune Umiditate
    00:00 +3°C° 0 mm 1 m/s 737 mmHg 92%
    01:00 +2°C° 0 mm 1 m/s 737 mmHg 92%
    02:00 +2°C° 0 mm 1 m/s 737 mmHg 92%
    03:00 +2°C° 0 mm 1 m/s 737 mmHg 92%
    04:00 +2°C° 0 mm 1 m/s 737 mmHg 91%
    05:00 +4°C° 0 mm 1 m/s 737 mmHg 87%
    06:00 +6°C° 0 mm 1 m/s 737 mmHg 83%
    07:00 +8°C° 0 mm 2 m/s 737 mmHg 79%
    08:00 +9°C° 0 mm 2 m/s 737 mmHg 73%
    09:00 +11°C° 0 mm 3 m/s 737 mmHg 68%
    10:00 +13°C° 0 mm 3 m/s 737 mmHg 62%
    11:00 +13°C° 0 mm 3 m/s 736 mmHg 59%
    12:00 +14°C° 0 mm 4 m/s 736 mmHg 57%
    13:00 +15°C° 0 mm 4 m/s 735 mmHg 54%
    14:00 +15°C° 0 mm 4 m/s 735 mmHg 55%
    15:00 +15°C° 0 mm 4 m/s 734 mmHg 57%
    16:00 +15°C° 0 mm 4 m/s 734 mmHg 58%
    17:00 +13°C° 0 mm 4 m/s 734 mmHg 67%
    18:00 +11°C° 0 mm 4 m/s 734 mmHg 76%
    19:00 +10°C° 0 mm 3 m/s 734 mmHg 85%
    20:00 +9°C° 0 mm 3 m/s 734 mmHg 88%
    21:00 +8°C° 0 mm 3 m/s 734 mmHg 90%
    22:00 +8°C° 0 mm 3 m/s 734 mmHg 92%
    23:00 +7°C° 0 mm 3 m/s 734 mmHg 93%

    1 Mai, Luni

    Timp Temperatura Precipitaţii Vânt Presiune Umiditate
    00:00 +7°C° 0 mm 3 m/s 733 mmHg 93%
    01:00 +7°C° 0 mm 3 m/s 733 mmHg 93%
    02:00 +6°C° 0 mm 2 m/s 733 mmHg 94%
    03:00 +6°C° 0 mm 2 m/s 733 mmHg 94%
    04:00 +6°C° 0 mm 2 m/s 732 mmHg 95%
    05:00 +7°C° 0 mm 2 m/s 732 mmHg 90%
    06:00 +8°C° 0 mm 3 m/s 732 mmHg 86%
    07:00 +10°C° 0 mm 3 m/s 733 mmHg 81%
    08:00 +11°C° 0 mm 3 m/s 732 mmHg 75%
    09:00 +13°C° 0 mm 3 m/s 732 mmHg 68%
    10:00 +16°C° 0 mm 3 m/s 732 mmHg 62%
    11:00 +16°C° 0,1 mm 3 m/s 732 mmHg 62%
    12:00 +16°C° 0,1 mm 3 m/s 732 mmHg 62%
    13:00 +17°C° 0,1 mm 3 m/s 732 mmHg 61%
    14:00 +14°C° 0,4 mm 3 m/s 732 mmHg 68%
    15:00 +13°C° 0,4 mm 4 m/s 732 mmHg 74%
    16:00 +12°C° 0,4 mm 5 m/s 733 mmHg 81%
    17:00 +9°C° 0,4 mm 5 m/s 733 mmHg 84%
    18:00 +8°C° 0,4 mm 5 m/s 734 mmHg 86%
    19:00 +6°C° 0,4 mm 5 m/s 734 mmHg 89%
    20:00 +6°C° 0,3 mm 4 m/s 735 mmHg 90%
    21:00 +6°C° 0,3 mm 4 m/s 736 mmHg 91%
    22:00 +5°C° 0,3 mm 4 m/s 736 mmHg 92%
    23:00 +5°C° 0,2 mm 3 m/s 736 mmHg 92%

    2 Mai, Marţi

    Timp Temperatura Precipitaţii Vânt Presiune Umiditate
    00:00 +5°C° 0,2 mm 3 m/s 736 mmHg 91%
    01:00 +5°C° 0,2 mm 3 m/s 737 mmHg 91%
    02:00 +5°C° 0,1 mm 2 m/s 737 mmHg 90%
    03:00 +5°C° 0,1 mm 2 m/s 737 mmHg 90%
    04:00 +4°C° 0,1 mm 2 m/s 737 mmHg 89%
    05:00 +5°C° 0 mm 2 m/s 737 mmHg 86%
    06:00 +6°C° 0 mm 2 m/s 737 mmHg 84%
    07:00 +7°C° 0 mm 2 m/s 737 mmHg 81%
    08:00 +9°C° 0 mm 2 m/s 737 mmHg 73%
    09:00 +12°C° 0 mm 2 m/s 737 mmHg 65%
    10:00 +14°C° 0 mm 2 m/s 737 mmHg 56%
    11:00 +15°C° 0 mm 2 m/s 736 mmHg 54%
    12:00 +16°C° 0 mm 2 m/s 736 mmHg 52%
    13:00 +17°C° 0 mm 2 m/s 735 mmHg 49%
    14:00 +17°C° 0 mm 2 m/s 735 mmHg 51%
    15:00 +17°C° 0 mm 2 m/s 734 mmHg 53%
    16:00 +17°C° 0 mm 2 m/s 733 mmHg 55%
    17:00 +15°C° 0 mm 2 m/s 733 mmHg 66%
    18:00 +13°C° 0 mm 2 m/s 733 mmHg 76%
    19:00 +10°C° 0 mm 2 m/s 733 mmHg 86%
    20:00 +10°C° 0 mm 2 m/s 733 mmHg 88%
    21:00 +9°C° 0 mm 2 m/s 733 mmHg 90%
    22:00 +8°C° 0 mm 2 m/s 733 mmHg 93%
    23:00 +8°C° 0 mm 2 m/s 732 mmHg 93%

    3 Mai, Miercuri

    Timp Temperatura Precipitaţii Vânt Presiune Umiditate
    00:00 +9°C° 0 mm 1 m/s 732 mmHg 93%
    01:00 +9°C° 0 mm 1 m/s 732 mmHg 93%
    02:00 +9°C° 0,3 mm 1 m/s 732 mmHg 94%
    03:00 +9°C° 0,3 mm 1 m/s 732 mmHg 95%
    04:00 +8°C° 0,3 mm 1 m/s 732 mmHg 96%
    05:00 +9°C° 0,3 mm 1 m/s 732 mmHg 95%
    06:00 +10°C° 0,3 mm 1 m/s 732 mmHg 95%
    07:00 +10°C° 0,3 mm 1 m/s 732 mmHg 94%
    08:00 +10°C° 0,6 mm 1 m/s 733 mmHg 94%
    09:00 +10°C° 0,6 mm 1 m/s 733 mmHg 94%
    10:00 +10°C° 0,6 mm 2 m/s 733 mmHg 94%
    11:00 +10°C° 0,8 mm 2 m/s 733 mmHg 94%
    12:00 +10°C° 0,8 mm 2 m/s 733 mmHg 94%
    13:00 +11°C° 0,8 mm 1 m/s 733 mmHg 93%
    14:00 +10°C° 0,6 mm 2 m/s 733 mmHg 93%
    15:00 +10°C° 0,6 mm 2 m/s 733 mmHg 92%
    16:00 +10°C° 0,6 mm 2 m/s 733 mmHg 91%
    17:00 +10°C° 0,2 mm 2 m/s 733 mmHg 93%
    18:00 +9°C° 0,2 mm 2 m/s 733 mmHg 94%
    19:00 +9°C° 0,2 mm 2 m/s 733 mmHg 96%
    20:00 +9°C° 0,1 mm 2 m/s 733 mmHg 96%
    21:00 +8°C° 0,1 mm 2 m/s 733 mmHg 96%
    22:00 +8°C° 0,1 mm 2 m/s 734 mmHg 96%
    23:00 +8°C° 0,1 mm 2 m/s 733 mmHg 97%
    Arată mai mult